• In United Kingdom
  • List of Countries
  • For 7 days
  • Water Temperature
  • Satellite Maps
  • Weather Map
  • Weather Widgets
  • user-avatar
    Login

    Hourly Weather Jewłach

    Today, 19 September, Tuesday

    Time Temperature Precipitation Wind Pressure Humidity
    00:00 +25°C° 0 mm 2 mps 761 mmHg 31%
    01:00 +25°C° 0 mm 2 mps 761 mmHg 32%
    02:00 +24°C° 0 mm 1 mps 761 mmHg 33%
    03:00 +24°C° 0 mm 1 mps 761 mmHg 36%
    04:00 +24°C° 0 mm 1 mps 761 mmHg 36%
    05:00 +24°C° 0 mm 1 mps 761 mmHg 36%
    06:00 +24°C° 0 mm 1 mps 761 mmHg 36%
    07:00 +26°C° 0 mm 1 mps 761 mmHg 33%
    08:00 +28°C° 0 mm 1 mps 761 mmHg 30%
    09:00 +31°C° 0 mm 1 mps 761 mmHg 26%
    10:00 +32°C° 0 mm 1 mps 761 mmHg 24%
    11:00 +33°C° 0 mm 1 mps 760 mmHg 22%
    12:00 +34°C° 0 mm 1 mps 760 mmHg 20%
    13:00 +36°C° 0 mm 2 mps 760 mmHg 19%
    14:00 +36°C° 0 mm 2 mps 760 mmHg 19%
    15:00 +37°C° 0 mm 2 mps 759 mmHg 18%
    16:00 +36°C° 0 mm 2 mps 760 mmHg 20%
    17:00 +34°C° 0 mm 2 mps 760 mmHg 21%
    18:00 +31°C° 0 mm 2 mps 760 mmHg 23%
    19:00 +30°C° 0 mm 2 mps 760 mmHg 26%
    20:00 +29°C° 0 mm 2 mps 761 mmHg 30%
    21:00 +28°C° 0 mm 3 mps 761 mmHg 33%
    22:00 +27°C° 0 mm 3 mps 761 mmHg 38%
    23:00 +27°C° 0 mm 2 mps 761 mmHg 44%

    Tomorrow, 20 September, Wednesday

    Time Temperature Precipitation Wind Pressure Humidity
    00:00 +26°C° 0 mm 2 mps 761 mmHg 49%
    01:00 +25°C° 0 mm 2 mps 761 mmHg 51%
    02:00 +25°C° 0 mm 1 mps 761 mmHg 52%
    03:00 +24°C° 0 mm 1 mps 761 mmHg 54%
    04:00 +24°C° 0 mm 1 mps 761 mmHg 54%
    05:00 +24°C° 0 mm 1 mps 761 mmHg 54%
    06:00 +24°C° 0 mm 1 mps 761 mmHg 54%
    07:00 +26°C° 0 mm 1 mps 761 mmHg 50%
    08:00 +28°C° 0 mm 1 mps 761 mmHg 47%
    09:00 +30°C° 0 mm 2 mps 761 mmHg 43%
    10:00 +31°C° 0 mm 2 mps 761 mmHg 38%
    11:00 +34°C° 0 mm 2 mps 760 mmHg 34%
    12:00 +35°C° 0 mm 2 mps 760 mmHg 29%
    13:00 +35°C° 0 mm 2 mps 760 mmHg 27%
    14:00 +36°C° 0 mm 2 mps 759 mmHg 26%
    15:00 +37°C° 0 mm 2 mps 759 mmHg 24%
    16:00 +35°C° 0 mm 2 mps 759 mmHg 26%
    17:00 +33°C° 0 mm 1 mps 759 mmHg 29%
    18:00 +31°C° 0 mm 1 mps 759 mmHg 31%
    19:00 +30°C° 0 mm 2 mps 760 mmHg 32%
    20:00 +30°C° 0 mm 2 mps 760 mmHg 34%
    21:00 +29°C° 0 mm 3 mps 760 mmHg 35%
    22:00 +28°C° 0 mm 2 mps 760 mmHg 37%
    23:00 +27°C° 0 mm 2 mps 760 mmHg 39%

    Day after tomorrow, 21 September, Thursday

    Time Temperature Precipitation Wind Pressure Humidity
    00:00 +26°C° 0 mm 2 mps 760 mmHg 41%
    01:00 +26°C° 0 mm 1 mps 760 mmHg 43%
    02:00 +25°C° 0 mm 1 mps 760 mmHg 44%
    03:00 +25°C° 0 mm 1 mps 760 mmHg 45%
    04:00 +25°C° 0 mm 1 mps 760 mmHg 45%
    05:00 +25°C° 0 mm 1 mps 761 mmHg 45%
    06:00 +24°C° 0 mm 1 mps 761 mmHg 45%
    07:00 +26°C° 0 mm 1 mps 760 mmHg 40%
    08:00 +29°C° 0 mm 1 mps 760 mmHg 36%
    09:00 +31°C° 0 mm 1 mps 760 mmHg 31%
    10:00 +32°C° 0 mm 2 mps 760 mmHg 28%
    11:00 +34°C° 0 mm 2 mps 759 mmHg 26%
    12:00 +36°C° 0 mm 2 mps 759 mmHg 23%
    13:00 +36°C° 0 mm 3 mps 759 mmHg 22%
    14:00 +37°C° 0 mm 3 mps 758 mmHg 21%
    15:00 +38°C° 0 mm 3 mps 758 mmHg 19%
    16:00 +36°C° 0 mm 3 mps 758 mmHg 21%
    17:00 +34°C° 0 mm 3 mps 758 mmHg 24%
    18:00 +33°C° 0 mm 3 mps 758 mmHg 26%
    19:00 +31°C° 0 mm 3 mps 759 mmHg 27%
    20:00 +29°C° 0 mm 3 mps 759 mmHg 29%
    21:00 +28°C° 0 mm 4 mps 760 mmHg 31%
    22:00 +28°C° 0 mm 3 mps 760 mmHg 33%
    23:00 +27°C° 0 mm 3 mps 760 mmHg 35%

    22 September, Friday

    Time Temperature Precipitation Wind Pressure Humidity
    00:00 +26°C° 0 mm 2 mps 760 mmHg 37%
    01:00 +25°C° 0 mm 2 mps 760 mmHg 39%
    02:00 +25°C° 0 mm 1 mps 760 mmHg 40%
    03:00 +24°C° 0 mm 1 mps 759 mmHg 41%
    04:00 +24°C° 0 mm 1 mps 760 mmHg 42%
    05:00 +24°C° 0 mm 1 mps 760 mmHg 42%
    06:00 +24°C° 0 mm 1 mps 760 mmHg 42%
    07:00 +26°C° 0 mm 1 mps 760 mmHg 37%
    08:00 +28°C° 0 mm 1 mps 759 mmHg 32%
    09:00 +30°C° 0 mm 1 mps 759 mmHg 26%
    10:00 +31°C° 0 mm 2 mps 759 mmHg 24%
    11:00 +34°C° 0 mm 2 mps 758 mmHg 21%
    12:00 +35°C° 0 mm 3 mps 758 mmHg 18%
    13:00 +36°C° 0 mm 3 mps 757 mmHg 18%
    14:00 +36°C° 0 mm 3 mps 757 mmHg 17%
    15:00 +37°C° 0 mm 3 mps 757 mmHg 16%
    16:00 +35°C° 0 mm 3 mps 757 mmHg 19%
    17:00 +33°C° 0 mm 3 mps 757 mmHg 21%
    18:00 +31°C° 0 mm 2 mps 757 mmHg 24%
    19:00 +30°C° 0.1 mm 2 mps 758 mmHg 26%
    20:00 +28°C° 0.1 mm 3 mps 758 mmHg 29%
    21:00 +27°C° 0.1 mm 3 mps 759 mmHg 31%
    22:00 +27°C° 0.1 mm 2 mps 759 mmHg 34%
    23:00 +26°C° 0.1 mm 2 mps 759 mmHg 37%

    23 September, Saturday

    Time Temperature Precipitation Wind Pressure Humidity
    00:00 +25°C° 0.1 mm 2 mps 760 mmHg 39%
    01:00 +25°C° 0 mm 1 mps 760 mmHg 40%
    02:00 +24°C° 0 mm 1 mps 760 mmHg 41%
    03:00 +24°C° 0 mm 1 mps 760 mmHg 42%
    04:00 +24°C° 0 mm 1 mps 760 mmHg 41%
    05:00 +24°C° 0 mm 1 mps 761 mmHg 41%
    06:00 +24°C° 0 mm 1 mps 761 mmHg 41%
    07:00 +26°C° 0 mm 1 mps 761 mmHg 37%
    08:00 +28°C° 0 mm 1 mps 761 mmHg 32%
    09:00 +30°C° 0 mm 1 mps 761 mmHg 28%
    10:00 +31°C° 0 mm 2 mps 761 mmHg 25%
    11:00 +34°C° 0 mm 2 mps 761 mmHg 22%
    12:00 +35°C° 0 mm 3 mps 761 mmHg 20%
    13:00 +35°C° 0 mm 3 mps 761 mmHg 18%
    14:00 +36°C° 0 mm 3 mps 761 mmHg 17%
    15:00 +37°C° 0 mm 4 mps 760 mmHg 16%
    16:00 +35°C° 0 mm 4 mps 761 mmHg 18%
    17:00 +33°C° 0 mm 3 mps 761 mmHg 20%
    18:00 +31°C° 0 mm 3 mps 762 mmHg 22%
    19:00 +30°C° 0 mm 3 mps 762 mmHg 24%
    20:00 +29°C° 0 mm 3 mps 763 mmHg 26%
    21:00 +27°C° 0 mm 3 mps 763 mmHg 28%
    22:00 +27°C° 0 mm 3 mps 763 mmHg 30%
    23:00 +26°C° 0 mm 2 mps 763 mmHg 33%

    24 September, Sunday

    Time Temperature Precipitation Wind Pressure Humidity
    00:00 +25°C° 0 mm 2 mps 763 mmHg 35%
    01:00 +25°C° 0 mm 2 mps 763 mmHg 36%
    02:00 +24°C° 0 mm 1 mps 763 mmHg 36%
    03:00 +24°C° 0 mm 1 mps 763 mmHg 37%
    04:00 +24°C° 0 mm 1 mps 763 mmHg 36%
    05:00 +23°C° 0 mm 1 mps 764 mmHg 35%
    06:00 +23°C° 0 mm 1 mps 764 mmHg 35%
    07:00 +25°C° 0 mm 1 mps 764 mmHg 30%
    08:00 +28°C° 0 mm 1 mps 764 mmHg 26%
    09:00 +30°C° 0 mm 1 mps 764 mmHg 22%
    10:00 +31°C° 0 mm 2 mps 763 mmHg 20%
    11:00 +32°C° 0 mm 2 mps 763 mmHg 18%
    12:00 +34°C° 0 mm 2 mps 763 mmHg 17%
    13:00 +35°C° 0 mm 3 mps 762 mmHg 16%
    14:00 +36°C° 0 mm 4 mps 762 mmHg 15%
    15:00 +36°C° 0 mm 4 mps 762 mmHg 14%
    16:00 +35°C° 0 mm 4 mps 762 mmHg 16%
    17:00 +33°C° 0 mm 4 mps 763 mmHg 18%
    18:00 +30°C° 0 mm 3 mps 763 mmHg 20%
    19:00 +29°C° 0 mm 3 mps 763 mmHg 25%
    20:00 +28°C° 0 mm 4 mps 764 mmHg 29%
    21:00 +27°C° 0 mm 4 mps 764 mmHg 33%
    22:00 +27°C° 0 mm 3 mps 764 mmHg 35%
    23:00 +26°C° 0 mm 3 mps 764 mmHg 37%
    Show more